sat.trackr.live / text

‹ back to catalog

STARLINK-34283

NORAD 64214 · 2025-117M

PAYLOAD ACTIVE UNKNOWN

§ Identity

Operator
Country
US
Launch date
2025-05-31
Launch site
AFWTR
Launch vehicle
Mass (kg)
RCS (m²)

Purposes: comms

External: N2YO · Heavens-Above · Gunter

§ Orbital elements

Epoch: 2026-09-20T06:36:45.655488Z

Period
93.85 min
Inclination
53.1582°
Eccentricity
0.0000953
Mean motion
15.34415524 rev/d
Perigee alt
462.0 km
Apogee alt
463.3 km
Semi-major
6,840.8 km
B*
4.4094e-4
RAAN
211.0959°
Arg perigee
88.6263°
Mean anomaly
271.4849°
Rev number
7,438

§ Raw data

STARLINK-342831 64214U 25117M   26263.27552842  .00014558  00000+0  44094-3 0  99932 64214  53.1582 211.0959 0000953  88.6263 271.4849 15.34415524 74381

JSON: /api/v1/satellites/64214 · /tle

For live sub-satellite position, see the globe view (requires WebGL).

§ Visibility from observer

Set your observer location to see the next 7 days of passes ≥ 10°. The values pass through the URL so the page stays shareable.

No JS? Fill the form by hand. The geolocation button needs JavaScript.